TimePDT,TemperatureF,Dew PointF,Humidity,Sea Level PressureIn,VisibilityMPH,Wind Direction,Wind SpeedMPH,Gust SpeedMPH,PrecipitationIn,Events,Conditions,WindDirDegrees,DateUTC
12:56 AM,72.0,34.0,25,29.96,10.0,SW,13.8,-,N/A,,Clear,230,2013-08-07 07:56:00
1:56 AM,70.0,37.9,31,29.96,10.0,SW,10.4,-,N/A,,Clear,230,2013-08-07 08:56:00
2:56 AM,68.0,34.0,28,29.97,10.0,WSW,3.5,-,N/A,,Clear,240,2013-08-07 09:56:00
3:56 AM,66.9,39.0,36,29.97,10.0,SW,10.4,-,N/A,,Clear,230,2013-08-07 10:56:00
4:56 AM,66.9,37.9,34,29.96,10.0,SW,11.5,-,N/A,,Clear,230,2013-08-07 11:56:00
5:56 AM,66.0,37.9,36,29.98,10.0,SW,13.8,-,N/A,,Clear,230,2013-08-07 12:56:00
6:56 AM,68.0,39.0,35,29.99,10.0,WSW,11.5,-,N/A,,Clear,250,2013-08-07 13:56:00
7:56 AM,73.9,39.0,28,30.00,10.0,WSW,12.7,-,N/A,,Clear,250,2013-08-07 14:56:00
8:56 AM,79.0,39.9,25,30.00,10.0,WSW,17.3,27.6,N/A,,Clear,240,2013-08-07 15:56:00
9:56 AM,81.0,36.0,20,30.00,10.0,WSW,19.6,26.5,N/A,,Clear,250,2013-08-07 16:56:00
10:56 AM,84.9,33.1,16,29.99,10.0,WSW,20.7,26.5,N/A,,Clear,250,2013-08-07 17:56:00
11:56 AM,89.1,27.0,11,29.98,10.0,WSW,20.7,27.6,N/A,,Clear,250,2013-08-07 18:56:00
12:56 PM,91.0,19.9,7,29.97,10.0,WSW,21.9,28.8,N/A,,Clear,240,2013-08-07 19:56:00
1:56 PM,91.9,21.9,8,29.96,10.0,SW,24.2,32.2,N/A,,Clear,230,2013-08-07 20:56:00
2:56 PM,91.0,26.1,10,29.95,10.0,WSW,21.9,28.8,N/A,,Clear,240,2013-08-07 21:56:00
3:56 PM,90.0,28.9,11,29.93,10.0,WSW,19.6,27.6,N/A,,Clear,240,2013-08-07 22:56:00
4:56 PM,89.1,28.9,12,29.93,10.0,WSW,18.4,27.6,N/A,,Clear,240,2013-08-07 23:56:00
5:56 PM,86.0,28.9,13,29.94,10.0,SW,18.4,26.5,N/A,,Clear,230,2013-08-08 00:56:00
6:56 PM,82.9,30.9,15,29.94,10.0,WSW,19.6,-,N/A,,Clear,240,2013-08-08 01:56:00
7:56 PM,77.0,36.0,23,29.96,10.0,WSW,13.8,-,N/A,,Clear,240,2013-08-08 02:56:00
8:56 PM,73.0,44.1,35,29.96,10.0,SW,11.5,-,N/A,,Clear,230,2013-08-08 03:56:00
9:56 PM,72.0,42.1,34,29.97,10.0,WSW,10.4,-,N/A,,Clear,240,2013-08-08 04:56:00
10:56 PM,72.0,41.0,33,29.96,10.0,WSW,11.5,-,N/A,,Clear,250,2013-08-08 05:56:00
11:56 PM,71.1,41.0,34,29.96,10.0,WSW,12.7,-,N/A,,Clear,250,2013-08-08 06:56:00